{"data":{"norad_id":68112,"epoch":"2026-05-25T04:03:52.716096Z","epoch_age_seconds":54204,"freshness":"FRESH","line1":"1 68112U 26044M   26145.16936014  .00030116  00000+0  93118-3 0  9997","line2":"2 68112  97.2846 105.7967 0002176  97.8370 262.3120 15.33453544 13301","mean_motion":15.33453544,"eccentricity":0.0002176,"inclination_deg":97.2846,"raan_deg":105.7967,"arg_perigee_deg":97.837,"mean_anomaly_deg":262.312,"bstar":0.00093118,"rev_number":1330,"period_min":93.905681436151,"perigee_km":464.02857438898,"apogee_km":467.00693293778,"semimajor_km":6843.6547536634,"source":"CELESTRAK","updated_at":"2026-05-25T13:38:21.843051Z"}}